Time,TemperatureF,DewpointF,PressureIn,WindDirection,WindDirectionDegrees,WindSpeedMPH,WindSpeedGustMPH,Humidity,HourlyPrecipIn,Conditions,Clouds,dailyrainin,SolarRadiationWatts/m^2,SoftwareType,DateUTC
2013-04-11 00:02:00,46.1,45.0,29.86,South,178,0.0,4.0,95,0.03,,,0.00,0,weatherlink.com 1.10,2013-04-11 04:02:00,
2013-04-11 00:17:00,45.9,44.0,29.86,South,183,3.0,4.0,94,0.02,,,0.00,0,weatherlink.com 1.10,2013-04-11 04:17:00,
2013-04-11 00:32:00,45.9,45.0,29.84,SSE,163,3.0,7.0,95,0.02,,,0.01,0,weatherlink.com 1.10,2013-04-11 04:32:00,
2013-04-11 00:47:00,45.7,44.0,29.85,SSW,196,2.0,5.0,95,0.01,,,0.01,0,weatherlink.com 1.10,2013-04-11 04:47:00,
2013-04-11 01:02:00,45.9,45.0,29.85,SSW,194,0.0,3.0,95,0.01,,,0.01,0,weatherlink.com 1.10,2013-04-11 05:02:00,
2013-04-11 01:17:00,45.9,45.0,29.83,SSW,194,0.0,3.0,95,0.01,,,0.01,0,weatherlink.com 1.10,2013-04-11 05:17:00,
2013-04-11 01:32:00,46.2,45.0,29.82,SSW,194,1.0,1.0,95,0.00,,,0.01,0,weatherlink.com 1.10,2013-04-11 05:32:00,
2013-04-11 01:47:00,46.2,45.0,29.82,SSW,194,0.0,1.0,95,0.00,,,0.01,0,weatherlink.com 1.10,2013-04-11 05:47:00,
2013-04-11 02:02:00,46.2,45.0,29.82,SSW,194,0.0,0.0,95,0.00,,,0.01,0,weatherlink.com 1.10,2013-04-11 06:02:00,
2013-04-11 02:17:00,46.3,45.0,29.83,SSW,194,0.0,0.0,95,0.00,,,0.01,0,weatherlink.com 1.10,2013-04-11 06:17:00,
2013-04-11 02:33:00,46.4,45.0,29.83,SSW,194,0.0,1.0,95,0.00,,,0.01,0,weatherlink.com 1.10,2013-04-11 06:33:00,
2013-04-11 02:48:00,46.4,45.0,29.82,NNW,329,0.0,4.0,95,0.00,,,0.01,0,weatherlink.com 1.10,2013-04-11 06:48:00,
2013-04-11 03:03:00,46.5,45.0,29.81,NNW,329,0.0,1.0,95,0.00,,,0.01,0,weatherlink.com 1.10,2013-04-11 07:03:00,
2013-04-11 03:18:00,46.7,45.0,29.81,NNW,328,0.0,2.0,95,0.00,,,0.01,0,weatherlink.com 1.10,2013-04-11 07:18:00,
2013-04-11 03:33:00,46.8,46.0,29.81,NNW,328,0.0,2.0,95,0.00,,,0.01,0,weatherlink.com 1.10,2013-04-11 07:33:00,
2013-04-11 03:48:00,47.0,46.0,29.81,NNW,329,1.0,2.0,95,0.00,,,0.01,0,weatherlink.com 1.10,2013-04-11 07:48:00,
2013-04-11 04:03:00,47.1,46.0,29.81,NNW,330,0.0,4.0,95,0.00,,,0.01,0,weatherlink.com 1.10,2013-04-11 08:03:00,
2013-04-11 04:18:00,47.3,46.0,29.81,NNW,330,0.0,3.0,96,0.00,,,0.01,0,weatherlink.com 1.10,2013-04-11 08:18:00,
2013-04-11 04:33:00,47.4,46.0,29.83,NW,317,0.0,5.0,96,0.00,,,0.01,0,weatherlink.com 1.10,2013-04-11 08:33:00,
2013-04-11 04:48:00,47.5,47.0,29.81,North,5,0.0,6.0,96,0.00,,,0.01,0,weatherlink.com 1.10,2013-04-11 08:48:00,
2013-04-11 05:03:00,47.6,47.0,29.82,North,355,0.0,2.0,96,0.00,,,0.01,0,weatherlink.com 1.10,2013-04-11 09:03:00,
2013-04-11 05:18:00,48.0,47.0,29.83,North,355,0.0,4.0,96,0.00,,,0.01,0,weatherlink.com 1.10,2013-04-11 09:18:00,
2013-04-11 05:33:00,48.3,47.0,29.84,NNW,333,0.0,3.0,96,0.00,,,0.01,0,weatherlink.com 1.10,2013-04-11 09:33:00,
2013-04-11 05:48:00,48.6,48.0,29.86,NW,319,0.0,3.0,96,0.00,,,0.01,0,weatherlink.com 1.10,2013-04-11 09:48:00,
2013-04-11 06:03:00,49.1,48.0,29.87,NW,319,0.0,1.0,96,0.00,,,0.01,0,weatherlink.com 1.10,2013-04-11 10:03:00,
2013-04-11 06:19:00,49.6,49.0,29.88,NW,319,0.0,3.0,96,0.00,,,0.01,0,weatherlink.com 1.10,2013-04-11 10:19:00,
2013-04-11 06:35:00,50.0,49.0,29.89,NNW,344,3.0,7.0,95,0.00,,,0.01,14,weatherlink.com 1.10,2013-04-11 10:35:00,
2013-04-11 06:49:00,50.2,49.0,29.89,North,360,0.0,5.0,95,0.00,,,0.01,14,weatherlink.com 1.10,2013-04-11 10:49:00,
2013-04-11 07:08:00,50.1,49.0,29.91,North,10,1.0,4.0,95,0.00,,,0.01,21,weatherlink.com 1.10,2013-04-11 11:08:00,
2013-04-11 07:19:00,50.2,49.0,29.91,North,10,2.0,3.0,96,0.00,,,0.01,21,weatherlink.com 1.10,2013-04-11 11:19:00,
2013-04-11 07:35:00,50.3,49.0,29.92,NNW,340,0.0,9.0,96,0.00,,,0.01,21,weatherlink.com 1.10,2013-04-11 11:35:00,
2013-04-11 07:49:00,50.4,49.0,29.92,NNW,327,4.0,4.0,95,0.00,,,0.01,42,weatherlink.com 1.10,2013-04-11 11:49:00,
2013-04-11 08:05:00,50.7,49.0,29.92,NNW,342,0.0,5.0,94,0.00,,,0.01,97,weatherlink.com 1.10,2013-04-11 12:05:00,
2013-04-11 08:20:00,50.9,49.0,29.93,North,360,6.0,8.0,94,0.00,,,0.01,79,weatherlink.com 1.10,2013-04-11 12:20:00,
2013-04-11 08:35:00,51.0,49.0,29.92,NNE,13,4.0,8.0,93,0.00,,,0.01,139,weatherlink.com 1.10,2013-04-11 12:35:00,
2013-04-11 08:50:00,51.2,49.0,29.93,NNE,19,7.0,10.0,92,0.00,,,0.01,123,weatherlink.com 1.10,2013-04-11 12:50:00,
2013-04-11 09:05:00,51.6,49.0,29.94,NNW,333,3.0,9.0,90,0.00,,,0.01,127,weatherlink.com 1.10,2013-04-11 13:05:00,
2013-04-11 09:20:00,51.8,49.0,29.94,North,360,7.0,9.0,90,0.00,,,0.01,142,weatherlink.com 1.10,2013-04-11 13:20:00,
2013-04-11 09:35:00,51.6,49.0,29.95,NW,322,2.0,10.0,89,0.00,,,0.01,178,weatherlink.com 1.10,2013-04-11 13:35:00,
2013-04-11 09:51:00,52.0,48.0,29.95,NNE,30,4.0,14.0,87,0.00,,,0.01,392,weatherlink.com 1.10,2013-04-11 13:51:00,
2013-04-11 10:06:00,52.8,49.0,29.95,NE,41,3.0,10.0,86,0.00,,,0.01,315,weatherlink.com 1.10,2013-04-11 14:06:00,
2013-04-11 10:36:00,53.8,48.0,29.95,NW,309,3.0,10.0,82,0.00,,,0.01,612,weatherlink.com 1.10,2013-04-11 14:36:00,
2013-04-11 10:51:00,54.6,49.0,29.96,North,10,10.0,11.0,80,0.00,,,0.01,696,weatherlink.com 1.10,2013-04-11 14:51:00,
2013-04-11 11:06:00,54.9,48.0,29.95,East,80,7.0,9.0,78,0.00,,,0.01,524,weatherlink.com 1.10,2013-04-11 15:06:00,
2013-04-11 11:22:00,55.9,48.0,29.96,NNE,22,5.0,9.0,76,0.00,,,0.01,508,weatherlink.com 1.10,2013-04-11 15:22:00,
2013-04-11 11:37:00,56.0,49.0,29.96,NNE,23,5.0,10.0,77,0.00,,,0.01,884,weatherlink.com 1.10,2013-04-11 15:37:00,
2013-04-11 11:52:00,56.3,48.0,29.95,ENE,64,5.0,13.0,75,0.00,,,0.01,851,weatherlink.com 1.10,2013-04-11 15:52:00,
2013-04-11 12:07:00,57.2,49.0,29.95,ENE,65,7.0,13.0,74,0.00,,,0.01,1028,weatherlink.com 1.10,2013-04-11 16:07:00,
2013-04-11 12:22:00,57.5,48.0,29.96,ENE,61,5.0,10.0,71,0.00,,,0.01,455,weatherlink.com 1.10,2013-04-11 16:22:00,
2013-04-11 12:37:00,57.9,49.0,29.95,NNE,30,4.0,9.0,71,0.00,,,0.01,770,weatherlink.com 1.10,2013-04-11 16:37:00,
2013-04-11 12:53:00,57.6,48.0,29.96,NE,42,3.0,10.0,71,0.00,,,0.01,455,weatherlink.com 1.10,2013-04-11 16:53:00,
2013-04-11 13:08:00,57.8,48.0,29.96,ENE,63,7.0,12.0,69,0.00,,,0.01,294,weatherlink.com 1.10,2013-04-11 17:08:00,
2013-04-11 13:23:00,57.2,47.0,29.96,NE,36,7.0,13.0,69,0.00,,,0.01,343,weatherlink.com 1.10,2013-04-11 17:23:00,
2013-04-11 13:38:00,57.3,48.0,29.97,NNE,13,1.0,12.0,70,0.00,,,0.01,167,weatherlink.com 1.10,2013-04-11 17:38:00,
2013-04-11 13:53:00,57.1,47.0,29.97,North,5,8.0,8.0,69,0.00,,,0.01,141,weatherlink.com 1.10,2013-04-11 17:53:00,
2013-04-11 14:08:00,57.0,46.0,29.97,NNE,22,6.0,9.0,68,0.00,,,0.01,123,weatherlink.com 1.10,2013-04-11 18:08:00,
2013-04-11 14:23:00,56.4,48.0,29.97,SE,128,6.0,6.0,73,0.00,,,0.01,120,weatherlink.com 1.10,2013-04-11 18:23:00,
2013-04-11 14:39:00,55.4,48.0,29.97,East,84,8.0,8.0,75,0.00,,,0.01,158,weatherlink.com 1.10,2013-04-11 18:39:00,
2013-04-11 14:55:00,55.1,47.0,29.97,East,101,1.0,10.0,73,0.00,,,0.01,144,weatherlink.com 1.10,2013-04-11 18:55:00,
2013-04-11 15:09:00,54.9,47.0,29.98,NE,50,3.0,8.0,76,0.00,,,0.01,204,weatherlink.com 1.10,2013-04-11 19:09:00,
2013-04-11 15:25:00,54.5,47.0,29.98,ENE,73,3.0,8.0,76,0.00,,,0.01,230,weatherlink.com 1.10,2013-04-11 19:25:00,
2013-04-11 15:39:00,54.3,47.0,29.98,SE,144,3.0,7.0,76,0.00,,,0.01,141,weatherlink.com 1.10,2013-04-11 19:39:00,
2013-04-11 15:55:00,54.3,47.0,29.97,SSE,161,3.0,13.0,75,0.00,,,0.01,250,weatherlink.com 1.10,2013-04-11 19:55:00,
2013-04-11 16:09:00,52.6,46.0,29.98,SSW,194,3.0,8.0,79,0.00,,,0.01,199,weatherlink.com 1.10,2013-04-11 20:09:00,
2013-04-11 16:25:00,51.7,46.0,29.99,SSE,159,6.0,9.0,80,0.00,,,0.01,146,weatherlink.com 1.10,2013-04-11 20:25:00,
2013-04-11 16:39:00,51.6,46.0,29.99,South,179,2.0,9.0,80,0.00,,,0.01,160,weatherlink.com 1.10,2013-04-11 20:39:00,
2013-04-11 16:55:00,51.4,45.0,29.99,SSE,162,6.0,10.0,80,0.00,,,0.01,139,weatherlink.com 1.10,2013-04-11 20:55:00,
2013-04-11 17:10:00,50.5,45.0,29.99,SSE,167,4.0,8.0,81,0.00,,,0.01,144,weatherlink.com 1.10,2013-04-11 21:10:00,
2013-04-11 17:25:00,49.9,45.0,30.00,SSE,161,3.0,7.0,82,0.00,,,0.01,88,weatherlink.com 1.10,2013-04-11 21:25:00,
2013-04-11 17:40:00,49.9,45.0,30.00,SSE,161,3.0,9.0,82,0.00,,,0.01,90,weatherlink.com 1.10,2013-04-11 21:40:00,
2013-04-11 17:55:00,50.2,45.0,29.99,SSE,150,3.0,6.0,81,0.00,,,0.01,77,weatherlink.com 1.10,2013-04-11 21:55:00,
2013-04-11 18:10:00,50.9,45.0,30.00,SE,124,4.0,7.0,79,0.00,,,0.01,54,weatherlink.com 1.10,2013-04-11 22:10:00,
2013-04-11 18:25:00,51.2,45.0,30.00,SE,146,2.0,3.0,78,0.00,,,0.01,42,weatherlink.com 1.10,2013-04-11 22:25:00,
2013-04-11 18:40:00,51.1,44.0,30.01,SSE,158,4.0,6.0,78,0.00,,,0.01,35,weatherlink.com 1.10,2013-04-11 22:40:00,
2013-04-11 18:56:00,49.2,42.0,30.02,South,169,4.0,10.0,77,0.00,,,0.01,16,weatherlink.com 1.10,2013-04-11 22:56:00,
2013-04-11 19:11:00,47.6,41.0,30.03,SSE,159,6.0,9.0,79,0.00,,,0.01,0,weatherlink.com 1.10,2013-04-11 23:11:00,
2013-04-11 19:26:00,46.9,41.0,30.04,SSE,154,4.0,8.0,79,0.00,,,0.01,0,weatherlink.com 1.10,2013-04-11 23:26:00,
2013-04-11 19:41:00,46.6,40.0,30.04,SSE,155,5.0,11.0,79,0.00,,,0.01,0,weatherlink.com 1.10,2013-04-11 23:41:00,
2013-04-11 19:56:00,46.4,40.0,30.04,SSE,147,9.0,11.0,78,0.00,,,0.01,0,weatherlink.com 1.10,2013-04-11 23:56:00,
2013-04-11 20:12:00,46.2,40.0,30.06,SSE,159,5.0,9.0,78,0.00,,,0.01,0,weatherlink.com 1.10,2013-04-12 00:12:00,
2013-04-11 20:57:00,46.4,40.0,30.07,ESE,104,2.0,8.0,78,0.00,,,0.01,0,weatherlink.com 1.10,2013-04-12 00:57:00,
2013-04-11 21:12:00,46.2,39.0,30.07,SSE,153,5.0,10.0,77,0.00,,,0.01,0,weatherlink.com 1.10,2013-04-12 01:12:00,
2013-04-11 21:27:00,46.2,39.0,30.08,SE,145,2.0,9.0,75,0.00,,,0.01,0,weatherlink.com 1.10,2013-04-12 01:27:00,
2013-04-11 21:42:00,46.2,38.0,30.08,SSE,148,4.0,11.0,74,0.00,,,0.01,0,weatherlink.com 1.10,2013-04-12 01:42:00,
2013-04-11 21:57:00,46.3,38.0,30.09,NE,45,4.0,7.0,73,0.00,,,0.01,0,weatherlink.com 1.10,2013-04-12 01:57:00,
2013-04-11 22:12:00,46.3,37.0,30.08,ESE,104,8.0,11.0,71,0.00,,,0.01,0,weatherlink.com 1.10,2013-04-12 02:12:00,
2013-04-11 22:28:00,46.1,37.0,30.08,East,86,5.0,8.0,71,0.00,,,0.01,0,weatherlink.com 1.10,2013-04-12 02:28:00,
2013-04-11 22:43:00,46.2,37.0,30.09,ESE,120,1.0,7.0,71,0.00,,,0.01,0,weatherlink.com 1.10,2013-04-12 02:43:00,
2013-04-11 22:58:00,46.1,38.0,30.09,SE,140,3.0,7.0,72,0.00,,,0.01,0,weatherlink.com 1.10,2013-04-12 02:58:00,
2013-04-11 23:13:00,46.1,37.0,30.09,ENE,62,0.0,9.0,70,0.00,,,0.01,0,weatherlink.com 1.10,2013-04-12 03:13:00,
2013-04-11 23:28:00,46.0,36.0,30.09,ENE,64,0.0,7.0,69,0.00,,,0.01,0,weatherlink.com 1.10,2013-04-12 03:28:00,
2013-04-11 23:43:00,46.1,36.0,30.10,ENE,63,0.0,5.0,69,0.00,,,0.01,0,weatherlink.com 1.10,2013-04-12 03:43:00,
2013-04-11 23:58:00,46.0,36.0,30.09,ENE,67,0.0,5.0,69,0.00,,,0.00,0,weatherlink.com 1.10,2013-04-12 03:58:00,